This demonstration page uses our WeatherBlox Daily Observations layout. Learn more.

Hourly Observations for February 8, 2017

Temp ( °F °C ) Dew Point ( °F °C ) Humidity (%) Winds ( mph kmh ) Pressure ( in mb ) Visibility ( mi km ) Precip ( " mm )
12:15 am 00:15 Cloudy 19 -7 10 -12 68 68 NNE 14 22 30 1016 10 16.0934 0 0
12:35 am 00:35 Mostly Cloudy 19 -7.1 10 -12.2 67 67 NE 14 22 30 1016 10 16.0934 0 0
12:55 am 00:55 Mostly Cloudy 19 -7.2 10 -12 69 69 NE 13 20 30 1016 10 16.0934 0 0
1:15 am 01:15 Partly Cloudy 18 -7.7 10 -12 72 72 NE 10 17 30 1016 10 16.0934 0 0
1:35 am 01:35 Clear 18 -7.6 11 -11.6 73 73 NNE 8 13 30 1016 10 16.0934 0 0
1:55 am 01:55 Clear 17 -8.1 11 -11.8 75 75 NNE 9 15 30 1016 10 16.0934 0 0
2:15 am 02:15 Clear 17 -8.3 11 -11.7 77 77 NNE 10 17 30 1016 10 16.0934 0 0
2:35 am 02:35 Clear 17 -8.5 11 -11.5 79 79 NE 6 9 30.03 1017 10 16.0934 0 0
2:55 am 02:55 Partly Cloudy 16 -8.7 12 -11.2 82 82 NNE 8 13 30 1016 10 16.0934 0 0
3:15 am 03:15 Mostly Cloudy 17 -8.5 12 -11 82 82 NNE 8 13 30 1016 10 16.0934 0 0
3:35 am 03:35 Cloudy 17 -8.3 12 -11 81 81 N 10 17 30.06 1018 10 16.0934 0 0
3:55 am 03:55 Cloudy 17 -8.5 12 -11.3 80 80 NNE 14 22 30.03 1017 10 16.0934 0 0
4:15 am 04:15 Cloudy 16 -8.7 11 -11.8 79 79 NNE 14 22 30.06 1018 10 16.0934 0 0
4:35 am 04:35 Cloudy 16 -8.8 10 -12 78 78 N 16 26 30.09 1019 10 16.0934 0 0
4:55 am 04:55 Mostly Cloudy 16 -9 10 -12.1 78 78 NNE 15 24 30.09 1019 10 16.0934 0 0
5:15 am 05:15 Mostly Cloudy 16 -9 10 -12.1 78 78 N 16 26 30.18 1022 10 16.0934 0 0
5:35 am 05:35 Cloudy 16 -9 10 -12.5 76 76 N 14 22 30.15 1021 10 16.0934 0 0
5:55 am 05:55 Mostly Cloudy with Scattered Snow Showers 15 -9.6 9 -13 77 77 N 20 31 30.15 1021 10 16.0934 0 0
6:15 am 06:15 Partly Cloudy 14 -9.8 8 -13.5 75 75 N 20 31 30.21 1023 10 16.0934 0 0
6:35 am 06:35 Clear 14 -10.2 8 -13.5 77 77 N 16 26 30.21 1023 10 16.0934 0 0
6:55 am 06:55 Clear 13 -10.5 7 -13.7 78 78 N 14 22 30.24 1024 10 16.0934 0 0
7:15 am 07:15 Clear 13 -10.5 8 -13.5 79 79 N 16 26 30.24 1024 10 16.0934 0 0
7:35 am 07:35 Partly Cloudy 13 -10.5 8 -13.6 78 78 NNE 15 24 30.27 1025 10 16.0934 0 0
7:55 am 07:55 Mostly Cloudy 14 -9.9 8 -13.5 75 75 N 15 24 30.27 1025 10 16.0934 0 0
8:15 am 08:15 Cloudy 15 -9.7 8 -13.5 74 74 N 15 24 30.3 1026 10 16.0934 0 0
8:35 am 08:35 Mostly Cloudy 15 -9.7 8 -13.5 74 74 N 13 20 30.3 1026 10 16.0934 0 0
8:55 am 08:55 Partly Cloudy 15 -9.7 7 -14 71 71 NNE 20 31 30.3 1026 10 16.0934 0 0
9:15 am 09:15 Partly Cloudy 16 -9 8 -13.4 71 71 N 16 26 30.33 1027 10 16.0934 0 0
9:35 am 09:35 Cloudy 16 -9 8 -13.6 70 70 N 17 28 30.33 1027 10 16.0934 0 0
9:55 am 09:55 Cloudy 16 -9 8 -13.6 70 70 N 17 28 30.33 1027 10 16.0934 0 0
10:15 am 10:15 Cloudy 17 -8.5 7 -13.8 66 66 N 14 22 30.36 1028 10 16.0934 0 0
10:35 am 10:35 Cloudy 17 -8.2 7 -13.8 64 64 N 14 22 30.36 1028 10 16.0934 0 0
10:55 am 10:55 Partly Cloudy 18 -7.7 8 -13.6 63 63 N 14 22 30.33 1027 10 16.0934 0 0
11:15 am 11:15 Sunny 19 -7 8 -13.6 60 60 NNE 15 24 30.33 1027 10 16.0934 0 0
11:35 am 11:35 Partly Cloudy 20 -6.6 7 -13.7 57 57 N 15 24 30.36 1028 10 16.0934 0 0
11:55 am 11:55 Partly Cloudy 21 -6.2 7 -13.8 55 55 N 12 19 30.36 1028 10 16.0934 0 0
12:15 pm 12:15 Sunny 21 -6.1 7 -13.7 55 55 N 12 19 30.33 1027 10 16.0934 0 0
12:35 pm 12:35 Sunny 22 -5.6 8 -13.6 54 54 N 12 19 30.33 1027 10 16.0934 0 0
12:55 pm 12:55 Sunny 22 -5.5 8 -13.6 53 53 N 10 17 30.33 1027 10 16.0934 0 0
1:15 pm 13:15 Sunny 23 -4.9 8 -13.2 53 53 N 8 13 30.3 1026 10 16.0934 0 0
1:35 pm 13:35 Sunny 24 -4.6 8 -13.2 51 51 N 9 15 30.3 1026 10 16.0934 0 0
1:55 pm 13:55 Sunny 24 -4.2 8 -13.1 50 50 NNW 9 15 30.27 1025 10 16.0934 0 0
2:15 pm 14:15 Sunny 25 -4 8 -13.2 49 49 N 12 19 30.27 1025 10 16.0934 0 0
2:35 pm 14:35 Sunny 25 -3.7 9 -12.9 49 49 NNW 12 19 30.3 1026 10 16.0934 0 0
2:55 pm 14:55 Sunny 26 -3.5 9 -12.8 49 49 N 7 11 30.27 1025 10 16.0934 0 0
3:15 pm 15:15 Sunny 26 -3.3 9 -12.8 48 48 N 8 13 30.3 1026 10 16.0934 0 0
3:35 pm 15:35 Sunny 27 -3 10 -12.5 48 48 NW 7 11 30.27 1025 10 16.0934 0 0
3:55 pm 15:55 Sunny 27 -2.8 10 -12.4 48 48 N 7 11 30.27 1025 10 16.0934 0 0
4:15 pm 16:15 Sunny 27 -2.7 10 -12.4 48 48 ENE 3 6 30.27 1025 10 16.0934 0 0
4:35 pm 16:35 Sunny 27 -2.8 10 -12.3 48 48 Calm 30.27 1025 10 16.0934 0 0
4:55 pm 16:55 Sunny 26 -3.1 10 -12.5 49 49 Calm 30.27 1025 10 16.0934 0 0
5:15 pm 17:15 Sunny 26 -3.1 10 -12.4 49 49 Calm 30.27 1025 10 16.0934 0 0
5:35 pm 17:35 Sunny 26 -3.5 10 -12.3 51 51 Calm 30.27 1025 10 16.0934 0 0
5:55 pm 17:55 Sunny 25 -3.8 10 -12.2 53 53 Calm 30.3 1026 10 16.0934 0 0
6:15 pm 18:15 Clear 24 -4.4 10 -12.3 54 54 Calm 30.27 1025 10 16.0934 0 0
6:35 pm 18:35 Clear 23 -4.8 11 -11.9 58 58 SSE 3 6 30.3 1026 10 16.0934 0 0
6:55 pm 18:55 Clear 22 -5.8 10 -12.1 61 61 SSE 3 6 30.36 1028 10 16.0934 0 0
7:15 pm 19:15 Clear 22 -5.5 11 -11.7 62 62 SSE 3 6 30.36 1028 10 16.0934 0 0
7:35 pm 19:35 Clear 21 -5.9 11 -11.8 63 63 SSE 3 6 30.36 1028 10 16.0934 0 0
7:55 pm 19:55 Clear 19 -7.5 10 -12.4 68 68 Calm 30.36 1028 10 16.0934 0 0
8:15 pm 20:15 Clear 18 -7.7 11 -11.4 75 75 Calm 30.39 1029 10 16.0934 0 0
8:35 pm 20:35 Clear 17 -8.1 10 -12.1 73 73 SE 5 7 30.39 1029 10 16.0934 0 0
8:55 pm 20:55 Clear 17 -8.3 10 -12.1 74 74 SE 3 6 30.39 1029 10 16.0934 0 0
9:15 pm 21:15 Clear 18 -7.8 12 -10.9 79 79 Calm 30.42 1030 10 16.0934 0 0
9:35 pm 21:35 Clear 18 -7.8 11 -11.5 75 75 ESE 3 6 30.42 1030 10 16.0934 0 0
9:55 pm 21:55 Clear 17 -8.2 12 -11.2 79 79 E 3 6 30.45 1031 10 16.0934 0 0
10:15 pm 22:15 Clear 17 -8.5 11 -11.5 79 79 E 6 9 30.45 1031 10 16.0934 0 0
10:35 pm 22:35 Clear 18 -8 11 -11.7 75 75 E 6 9 30.45 1031 10 16.0934 0 0
10:55 pm 22:55 Clear 16 -8.8 11 -11.8 79 79 E 6 9 30.45 1031 10 16.0934 0 0
11:15 pm 23:15 Clear 15 -9.2 10 -12.1 80 80 ESE 6 9 30.42 1030 10 16.0934 0 0
11:35 pm 23:35 Clear 16 -9 10 -12.2 78 78 ESE 6 9 30.42 1030 10 16.0934 0 0
11:55 pm 23:55 Clear 15 -9.3 10 -12.5 78 78 ESE 6 9 30.42 1030 10 16.0934 0 0

Powered by AerisWeather